1507705201.18,43923,10.81,73768.3,-0.09,-1.01,-1.01,0,*56
1507705202.44,43924,10.81,73770.5,-0.09,-1.01,-0.97,0,*6F
1507705203.67,43925,10.81,73772.3,-0.11,-1.09,-1.01,0,*61
1507705204.92,43926,10.81,73776.8,-0.09,-1.01,-0.97,0,*6D
1507705206.19,43927,10.81,73782.3,-0.09,-1.01,-1.01,0,*52
1507705207.42,43928,10.81,73776.3,-0.11,-1.09,-1.01,0,*6C
1507705208.68,43929,10.81,73774.8,-0.09,-1.01,-1.01,0,*5C
1507705209.94,43930,10.81,73772.8,-0.09,-1.01,-1.01,0,*54
1507705211.19,43931,10.81,73768.0,-0.09,-0.97,-0.97,0,*55
1507705212.42,43932,10.81,73770.0,-0.11,-1.01,-0.89,0,*5E
1507705213.65,43933,10.81,73768.5,-0.11,-1.01,-0.97,0,*50
1507705214.89,43934,10.81,73766.3,-0.11,-1.01,-0.89,0,*58
1507705216.12,43935,10.81,73760.8,-0.11,-1.01,-0.97,0,*56
1507705217.38,43936,10.81,73764.3,-0.09,-1.01,-1.01,0,*52
1507705218.64,43937,10.81,73760.5,-0.09,-1.01,-1.01,0,*53
1507705219.9,43938,10.81,73758.3,-0.09,-1.09,-1.01,0,*54
1507705221.15,43939,10.81,73768.5,-0.09,-1.09,-1.09,0,*5D
1507705222.39,43940,10.81,73768.8,-0.11,-1.13,-1.13,0,*6A
1507705223.62,43941,10.81,73770.5,-0.11,-1.13,-1.13,0,*6B
1507705224.85,43942,10.81,73768.5,-0.11,-1.13,-1.13,0,*68
1507705226.09,43943,10.81,73766.5,-0.09,-1.13,-1.21,0,*51
1507705227.33,43944,10.81,73766.5,-0.11,-1.09,-1.09,0,*6E
1507705228.56,43945,10.81,73768.3,-0.11,-1.13,-1.13,0,*6F
1507705229.79,43946,10.81,73768.0,-0.11,-1.09,-1.01,0,*64
1507705231.03,43947,10.81,73764.8,-0.11,-1.01,-1.09,0,*65
1507705232.29,43948,10.81,73762.3,-0.09,-1.09,-1.09,0,*5B
1507705233.52,43949,10.81,73760.8,-0.11,-1.01,-1.09,0,*6B
1507705234.76,43950,10.81,73766.5,-0.11,-1.09,-1.09,0,*6B
1507705235.99,43951,10.81,73764.0,-0.11,-1.09,-1.01,0,*62
1507705237.25,43952,10.81,73768.3,-0.09,-1.09,-1.09,0,*50
1507705238.51,43953,10.81,73768.3,-0.09,-1.01,-1.09,0,*59
1507705239.74,43954,10.81,73768.3,-0.11,-1.09,-1.01,0,*67
1507705240.97,43955,10.81,73772.5,-0.11,-1.09,-1.01,0,*66
1507705242.21,43956,10.81,73770.8,-0.11,-1.01,-1.01,0,*6D
1507705243.47,43957,10.81,73772.8,-0.09,-1.09,-1.01,0,*5D
1507705244.7,43958,10.81,73768.8,-0.11,-1.01,-1.09,0,*6B
1507705245.94,43959,10.81,73766.3,-0.11,-1.01,-1.01,0,*62
1507705247.2,43960,10.81,73768.8,-0.09,-1.09,-1.01,0,*59
1507705248.46,43961,10.81,73774.8,-0.09,-1.09,-1.01,0,*58
1507705249.69,43962,10.81,73772.0,-0.11,-1.01,-1.09,0,*62
1507705250.93,43963,10.81,73774.8,-0.11,-1.01,-1.01,0,*6B
1507705252.16,43964,10.81,73774.8,-0.11,-1.09,-1.01,0,*64
1507705253.4,43965,10.81,73776.5,-0.11,-1.01,-1.09,0,*65
1507705254.63,43966,10.81,73778.0,-0.11,-1.01,-1.09,0,*66
1507705255.87,43967,10.81,73782.3,-0.11,-1.09,-1.01,0,*67
1507705257.11,43968,10.81,73778.0,-0.11,-1.01,-1.01,0,*60
1507705258.34,43969,10.81,73780.5,-0.11,-1.09,-1.01,0,*69
1507705259.57,43970,10.81,73776.0,-0.11,-1.09,-1.09,0,*69
1507705260.81,43971,10.81,73778.3,-0.11,-1.01,-1.01,0,*68
1507705262.05,43972,10.81,73778.5,-0.11,-1.01,-1.01,0,*6B
1507705263.28,43973,10.81,73774.8,-0.11,-1.09,-1.09,0,*6A
1507705264.54,43974,10.81,73778.5,-0.09,-1.01,-1.01,0,*54
1507705265.78,43975,10.81,73784.8,-0.11,-1.01,-1.01,0,*6C
1507705267.01,43976,10.81,73778.3,-0.11,-1.01,-1.01,0,*6F
1507705268.27,43977,10.81,73772.3,-0.09,-1.09,-1.09,0,*57
1507705269.51,43978,10.81,73772.0,-0.11,-1.01,-1.01,0,*61
1507705270.74,43979,10.81,73774.0,-0.11,-1.01,-1.01,0,*60
1507705271.98,43980,10.81,73774.5,-0.11,-1.01,-1.01,0,*66
1507705273.24,43981,10.81,73774.0,-0.09,-1.01,-1.01,0,*5E
1507705274.48,43982,10.81,73770.8,-0.11,-1.01,-1.01,0,*64
1507705275.71,43983,10.81,73786.8,-0.11,-1.09,-1.01,0,*6D
1507705276.94,43984,10.81,73794.0,-0.11,-1.09,-1.01,0,*6A
1507705278.18,43985,10.81,73798.8,-0.11,-1.09,-1.09,0,*63
1507705279.43,43986,10.81,73790.8,-0.13,-1.17,-1.05,0,*61
1507705280.7,43987,10.81,73790.5,-0.13,-1.05,-1.05,0,*63
1507705281.96,43988,10.81,73790.5,-0.09,-1.09,-1.01,0,*5F
1507705283.19,43989,10.81,73788.8,-0.11,-1.09,-1.09,0,*6F
1507705284.45,43990,10.81,73780.0,-0.09,-1.01,-1.01,0,*5E
1507705285.67,43991,10.81,73792.8,-0.11,-1.13,-1.21,0,*67
1507705286.9,43992,10.81,73794.3,-0.11,-1.09,-1.09,0,*65
1507705288.1,43993,10.81,73792.5,-0.11,-1.21,-1.21,0,*64
1507705289.33,43994,10.81,73788.0,-0.11,-1.13,-1.13,0,*63
1507705290.57,43995,10.81,73790.8,-0.11,-1.13,-1.09,0,*69
1507705291.8,43996,10.81,73786.5,-0.11,-1.09,-1.01,0,*69
1507705293.04,43997,10.81,73780.8,-0.11,-1.13,-1.09,0,*6B
1507705294.3,43998,10.81,73782.0,-0.13,-1.13,-1.13,0,*6D
1507705295.56,43999,10.81,73786.0,-0.13,-1.13,-1.13,0,*6C
1507705296.83,44000,10.81,73790.0,-0.13,-1.13,-1.13,0,*62
1507705298.09,44001,10.81,73788.3,-0.13,-1.13,-1.13,0,*63
1507705299.33,44002,10.81,73794.8,-0.13,-1.13,-1.17,0,*64
1507705300.6,44003,10.81,73784.5,-0.13,-1.13,-1.13,0,*61
1507705301.86,44004,10.81,73768.8,-0.13,-1.13,-1.13,0,*66
1507705303.1,44005,10.81,73782.3,-0.11,-1.01,-1.01,0,*65
1507705304.33,44006,10.81,73784.5,-0.11,-1.01,-1.01,0,*66
1507705305.57,44007,10.81,73776.5,-0.11,-1.13,-1.09,0,*6C
1507705306.84,44008,10.81,73770.3,-0.13,-1.05,-1.13,0,*6D
1507705308.11,44009,10.81,73774.8,-0.13,-1.05,-1.05,0,*6B
1507705309.38,44010,10.81,73774.5,-0.13,-1.13,-1.05,0,*64
1507705310.64,44011,10.81,73780.5,-0.13,-1.13,-1.13,0,*62
1507705311.91,44012,10.81,73780.8,-0.13,-1.05,-1.13,0,*66
1507705313.14,44013,10.81,73780.3,-0.11,-1.01,-0.97,0,*5C
1507705314.38,44014,10.81,73784.3,-0.11,-1.01,-1.01,0,*65
1507705315.61,44015,10.81,73784.8,-0.11,-1.09,-1.01,0,*6C
1507705316.85,44016,10.81,73782.5,-0.11,-1.01,-1.09,0,*6F
1507705318.08,44017,10.81,73778.5,-0.11,-1.09,-1.09,0,*66
1507705319.32,44018,10.81,73772.3,-0.11,-1.01,-1.01,0,*69
1507705320.57,44019,10.81,73774.0,-0.15,-1.05,-1.05,0,*6C
1507705321.81,44020,10.81,73774.0,-0.15,-1.13,-1.05,0,*61
1507705323.08,44021,10.81,73764.5,-0.13,-1.01,-1.05,0,*65
1507705324.35,44022,10.81,73768.0,-0.13,-1.05,-1.13,0,*65
1507705325.62,44023,10.81,73770.8,-0.13,-1.05,-1.05,0,*63
1507705326.88,44024,10.81,73766.5,-0.13,-1.13,-1.13,0,*64
1507705328.15,44025,10.81,73762.0,-0.13,-1.13,-1.05,0,*62
1507705329.42,44026,10.81,73764.8,-0.13,-1.13,-1.05,0,*61
1507705330.69,44027,10.81,73766.0,-0.13,-1.13,-1.05,0,*60
1507705331.95,44028,10.81,73770.8,-0.13,-1.13,-1.13,0,*68
1507705333.19,44029,10.81,73772.0,-0.13,-1.25,-1.13,0,*6C
1507705334.44,44030,10.81,73774.3,-0.13,-1.17,-1.13,0,*65
1507705335.67,44031,10.81,73778.8,-0.11,-1.13,-1.13,0,*62
1507705336.9,44032,10.81,73780.3,-0.11,-1.01,-1.09,0,*69
1507705338.14,44033,10.81,73780.8,-0.11,-1.09,-1.09,0,*60
1507705339.41,44034,10.81,73784.5,-0.13,-1.05,-1.13,0,*62
1507705340.64,44035,10.81,73780.5,-0.15,-1.05,-1.13,0,*65
1507705341.92,44036,10.81,73784.0,-0.13,-1.05,-1.05,0,*67
1507705343.18,44037,10.81,73786.0,-0.13,-1.13,-1.13,0,*66
1507705344.45,44038,10.81,73786.5,-0.13,-1.13,-1.13,0,*69
1507705345.71,44039,10.81,73786.8,-0.13,-1.05,-1.13,0,*6F
1507705346.98,44040,10.81,73786.5,-0.13,-1.13,-1.13,0,*66
1507705348.25,44041,10.81,73782.5,-0.13,-1.05,-1.05,0,*67
1507705349.52,44042,10.81,73784.0,-0.13,-1.05,-1.13,0,*63
1507705350.76,44043,10.81,73794.8,-0.15,-1.05,-1.05,0,*63
1507705352.01,44044,10.81,73790.8,-0.15,-1.05,-1.05,0,*64
1507705353.28,44045,10.81,73788.8,-0.13,-1.05,-1.05,0,*63
1507705354.55,44046,10.81,73786.3,-0.13,-1.05,-1.05,0,*60
1507705355.82,44047,10.81,73784.3,-0.13,-1.05,-1.13,0,*66
1507705357.07,44048,10.81,73778.5,-0.15,-1.13,-1.05,0,*6F
1507705358.34,44049,10.81,73782.5,-0.13,-1.05,-1.05,0,*6F
1507705359.61,44050,10.81,73774.5,-0.13,-1.05,-1.01,0,*63
1507705360.88,44051,10.81,73772.3,-0.13,-1.05,-1.05,0,*66
1507705362.15,44052,10.81,73768.0,-0.13,-1.13,-1.05,0,*62
1507705363.42,44053,10.81,73768.5,-0.13,-1.13,-1.13,0,*64
1507705364.68,44054,10.81,73774.3,-0.13,-1.13,-1.05,0,*64
1507705365.96,44055,10.81,73776.8,-0.13,-1.05,-1.05,0,*62
1507705367.17,44056,10.81,73788.3,-0.15,-1.13,-1.17,0,*63
1507705368.44,44057,10.81,73786.0,-0.13,-1.13,-1.05,0,*67
1507705369.71,44058,10.81,73764.8,-0.13,-1.05,-1.13,0,*68
1507705370.98,44059,10.81,73756.0,-0.13,-1.05,-1.13,0,*69
1507705372.24,44060,10.81,73760.3,-0.13,-1.13,-1.13,0,*64
1507705373.48,44061,10.81,73760.8,-0.15,-1.13,-1.13,0,*63
1507705374.75,44062,10.81,73768.3,-0.13,-1.05,-1.05,0,*66
1507705375.99,44063,10.81,73768.0,-0.15,-1.13,-1.05,0,*66
1507705377.26,44064,10.81,73768.8,-0.13,-1.13,-1.13,0,*60
1507705378.49,44065,10.81,73774.3,-0.15,-1.13,-1.13,0,*67
1507705379.73,44066,10.81,73778.5,-0.15,-1.13,-1.13,0,*64
1507705380.95,44067,10.81,73776.0,-0.13,-1.25,-1.17,0,*62
1507705382.14,44068,10.81,73778.3,-0.15,-1.25,-1.17,0,*6B
1507705383.36,44069,10.81,73774.8,-0.15,-1.13,-1.17,0,*6F
1507705384.59,44070,10.81,73782.3,-0.15,-1.13,-1.13,0,*63
1507705385.85,44071,10.81,73782.0,-0.13,-1.13,-1.13,0,*64
1507705387.1,44072,10.81,73786.3,-0.13,-1.17,-1.13,0,*63
1507705388.36,44073,10.81,73782.8,-0.13,-1.13,-1.13,0,*66
1507705389.61,44074,10.81,73780.5,-0.13,-1.17,-1.13,0,*65
1507705390.87,44075,10.81,73776.3,-0.13,-1.13,-1.05,0,*67
1507705392.15,44076,10.81,73780.5,-0.13,-1.05,-1.05,0,*63
1507705393.42,44077,10.81,73782.8,-0.13,-1.13,-1.05,0,*65
1507705394.68,44078,10.81,73786.5,-0.13,-1.05,-1.13,0,*6A
1507705395.92,44079,10.81,73782.0,-0.15,-1.13,-1.13,0,*6A
1507705397.17,44080,10.81,73772.3,-0.13,-1.17,-1.13,0,*6E
1507705398.38,44081,10.81,73770.8,-0.15,-1.13,-1.17,0,*69
1507705399.6,44082,10.81,73768.3,-0.13,-1.25,-1.25,0,*68
1507705400.83,44083,10.81,73768.0,-0.15,-1.13,-1.13,0,*6F
1507705402.08,44084,10.81,73768.3,-0.13,-1.17,-1.13,0,*6A
1507705403.34,44085,10.81,73770.8,-0.13,-1.13,-1.05,0,*68
1507705404.61,44086,10.81,73770.3,-0.13,-1.13,-1.13,0,*6C
1507705405.87,44087,10.81,73772.0,-0.13,-1.13,-1.13,0,*6D
1507705407.14,44088,10.81,73768.5,-0.13,-1.13,-1.13,0,*62
1507705408.38,44089,10.81,73774.0,-0.13,-1.17,-1.13,0,*67
1507705409.61,44090,10.81,73766.8,-0.15,-1.13,-1.13,0,*6D
1507705410.85,44091,10.81,73766.3,-0.15,-1.13,-1.13,0,*6C
1507705412.1,44092,10.81,73764.8,-0.15,-1.05,-1.05,0,*6F
1507705413.34,44093,10.81,73760.5,-0.15,-1.05,-1.13,0,*69
1507705414.57,44094,10.81,73760.3,-0.15,-1.13,-1.13,0,*69
1507705415.82,44095,10.81,73762.8,-0.15,-1.13,-1.05,0,*6F
1507705417.09,44096,10.81,73760.3,-0.13,-1.13,-1.05,0,*6A
1507705418.36,44097,10.81,73762.0,-0.13,-1.13,-1.05,0,*6B
1507705419.6,44098,10.81,73766.5,-0.15,-1.13,-1.05,0,*62
1507705420.82,44099,10.81,73772.8,-0.15,-1.17,-1.13,0,*60
1507705422.08,44100,10.81,73756.8,-0.13,-1.13,-1.13,0,*63
1507705423.28,44101,10.81,73764.8,-0.15,-1.17,-1.17,0,*64
1507705424.47,44102,10.81,73774.3,-0.15,-1.17,-1.17,0,*67
1507705425.66,44103,10.81,73776.0,-0.15,-1.25,-1.25,0,*66
1507705426.88,44104,10.81,73778.3,-0.13,-1.25,-1.17,0,*66
1507705428.11,44105,10.81,73786.5,-0.15,-1.13,-1.13,0,*60
1507705429.38,44106,10.81,73788.3,-0.13,-1.05,-1.13,0,*62
1507705430.62,44107,10.81,73792.3,-0.15,-1.13,-1.05,0,*65
1507705431.85,44108,10.81,73794.3,-0.15,-1.17,-1.05,0,*6E
1507705433.12,44109,10.81,73796.3,-0.13,-1.13,-1.05,0,*6D
1507705434.36,44110,10.81,73796.0,-0.15,-1.13,-1.05,0,*63
1507705435.6,44111,10.81,73792.5,-0.15,-1.05,-1.13,0,*62
1507705436.84,44112,10.81,73794.8,-0.15,-1.13,-1.13,0,*66
1507705438.1,44113,10.81,73796.0,-0.13,-1.13,-1.13,0,*61
1507705439.34,44114,10.81,73800.0,-0.15,-1.13,-1.05,0,*67
1507705440.6,44115,10.81,73802.8,-0.13,-1.13,-1.13,0,*67
1507705441.85,44116,10.81,73806.0,-0.15,-1.05,-1.13,0,*65
1507705443.06,44117,10.81,73798.8,-0.15,-1.17,-1.13,0,*67
1507705444.33,44118,10.81,73796.0,-0.13,-1.13,-1.13,0,*6A
1507705445.6,44119,10.81,73796.5,-0.13,-1.13,-1.05,0,*6C
1507705446.87,44120,10.81,73790.5,-0.13,-1.05,-1.05,0,*61
1507705448.11,44121,10.81,73788.3,-0.15,-1.05,-1.13,0,*61
1507705449.35,44122,10.81,73788.5,-0.15,-1.05,-1.13,0,*62
1507705450.62,44123,10.81,73784.5,-0.13,-1.05,-1.13,0,*65
1507705451.86,44124,10.81,73780.5,-0.15,-1.05,-1.05,0,*63
1507705453.1,44125,10.81,73778.3,-0.15,-1.05,-1.13,0,*65
1507705454.34,44126,10.81,73780.3,-0.15,-1.13,-1.05,0,*66
1507705455.61,44127,10.81,73776.0,-0.13,-1.05,-1.13,0,*61
1507705456.86,44128,10.81,73784.5,-0.15,-1.13,-1.05,0,*68
1507705458.1,44129,10.81,73788.3,-0.15,-1.05,-1.05,0,*6E
1507705459.35,44130,10.81,73784.3,-0.15,-1.05,-1.05,0,*66
1507705460.57,44131,10.81,73790.0,-0.15,-1.17,-1.05,0,*64
1507705461.81,44132,10.81,73790.0,-0.15,-1.13,-1.05,0,*63
1507705463.06,44133,10.81,73784.5,-0.15,-1.05,-1.05,0,*65
1507705464.3,44134,10.81,73782.3,-0.15,-1.13,-1.13,0,*62
1507705465.54,44135,10.81,73782.5,-0.15,-1.05,-1.05,0,*63
1507705466.78,44136,10.81,73770.3,-0.15,-1.13,-1.13,0,*60
1507705468.03,44137,10.81,73778.0,-0.15,-1.05,-1.05,0,*61
1507705469.27,44138,10.81,73780.3,-0.15,-1.05,-1.13,0,*69
1507705470.5,44139,10.81,73778.3,-0.15,-1.13,-1.13,0,*6F
1507705471.74,44140,10.81,73778.5,-0.15,-1.13,-1.01,0,*62
1507705472.99,44141,10.81,73772.5,-0.15,-1.05,-1.05,0,*60
1507705474.23,44142,10.81,73770.3,-0.15,-1.05,-1.05,0,*63
1507705475.47,44143,10.81,73766.3,-0.15,-1.13,-1.13,0,*62
1507705476.72,44144,10.81,73768.0,-0.15,-1.05,-1.05,0,*65
1507705477.96,44145,10.81,73770.8,-0.15,-1.05,-1.01,0,*60
1507705479.2,44146,10.81,73772.8,-0.15,-1.13,-1.13,0,*67
1507705480.44,44147,10.81,73774.3,-0.15,-1.05,-1.05,0,*66
1507705481.72,44148,10.81,73774.0,-0.13,-1.05,-1.05,0,*6F
1507705482.96,44149,10.81,73782.5,-0.15,-1.05,-1.05,0,*68
1507705484.21,44150,10.81,73788.5,-0.15,-1.13,-1.05,0,*67
1507705485.45,44151,10.81,73794.5,-0.15,-1.13,-1.05,0,*66
1507705486.69,44152,10.81,73796.0,-0.15,-1.05,-1.01,0,*66
1507705487.94,44153,10.81,73792.8,-0.15,-1.05,-1.05,0,*63
1507705489.18,44154,10.81,73794.5,-0.15,-1.05,-1.13,0,*63
1507705490.41,44155,10.81,73790.3,-0.15,-1.13,-1.13,0,*65
1507705491.69,44156,10.81,73780.8,-0.13,-1.05,-1.05,0,*60
1507705492.93,44157,10.81,73780.0,-0.15,-1.13,-1.05,0,*60
1507705494.17,44158,10.81,73772.3,-0.15,-1.05,-1.13,0,*6F
1507705495.42,44159,10.81,73766.3,-0.15,-1.05,-1.05,0,*69
1507705496.66,44160,10.81,73764.8,-0.15,-1.13,-1.05,0,*64
1507705497.93,44161,10.81,73758.5,-0.13,-1.05,-1.13,0,*63
1507705499.17,44162,10.81,73762.3,-0.15,-1.05,-1.05,0,*61
1507705500.42,44163,10.81,73760.5,-0.15,-1.05,-1.05,0,*60
1507705501.66,44164,10.81,73758.8,-0.15,-1.13,-1.05,0,*60
1507705502.9,44165,10.81,73756.8,-0.15,-1.13,-1.05,0,*61
1507705504.15,44166,10.81,73752.8,-0.15,-1.13,-1.05,0,*62
1507705505.38,44167,10.81,73756.0,-0.15,-1.13,-1.13,0,*64
1507705506.63,44168,10.81,73748.3,-0.15,-1.13,-1.05,0,*6C
1507705507.82,44169,10.81,73752.5,-0.15,-1.17,-1.17,0,*6A
1507705509.04,44170,10.81,73750.8,-0.15,-1.13,-1.17,0,*66
1507705510.27,44171,10.81,73750.8,-0.17,-1.17,-1.17,0,*61
1507705511.5,44172,10.81,73746.0,-0.15,-1.13,-1.13,0,*60
1507705512.74,44173,10.81,73748.3,-0.15,-1.05,-1.13,0,*66
1507705513.99,44174,10.81,73752.3,-0.15,-1.01,-1.05,0,*62
1507705515.23,44175,10.81,73758.0,-0.15,-1.05,-1.05,0,*67
1507705516.48,44176,10.81,73754.8,-0.15,-1.05,-1.05,0,*64
1507705517.72,44177,10.81,73758.5,-0.15,-1.13,-1.01,0,*66
1507705518.96,44178,10.81,73754.3,-0.15,-1.13,-1.05,0,*6D
1507705520.21,44179,10.81,73748.3,-0.15,-1.05,-1.05,0,*6B
1507705521.45,44180,10.81,73752.3,-0.15,-1.05,-1.05,0,*6D
1507705522.7,44181,10.81,73752.5,-0.15,-1.13,-1.05,0,*6B
1507705523.94,44182,10.81,73750.8,-0.15,-1.05,-1.05,0,*6F
1507705525.18,44183,10.81,73750.8,-0.15,-1.13,-1.01,0,*6D
1507705526.42,44184,10.81,73750.8,-0.15,-1.13,-1.13,0,*69
1507705527.66,44185,10.81,73748.5,-0.15,-1.05,-1.05,0,*68
1507705528.91,44186,10.81,73754.8,-0.15,-1.13,-1.01,0,*68
1507705530.14,44187,10.81,73758.5,-0.15,-1.05,-1.13,0,*6D
1507705531.39,44188,10.75,73748.5,-0.15,-1.13,-1.05,0,*62
1507705532.63,44189,10.81,73764.5,-0.15,-1.05,-1.05,0,*64
1507705533.87,44190,10.81,73762.3,-0.15,-1.05,-1.13,0,*6B
1507705535.09,44191,10.81,73756.0,-0.15,-1.13,-1.17,0,*69
1507705536.33,44192,10.81,73758.0,-0.15,-1.05,-1.01,0,*6A
1507705537.6,44193,10.81,73762.8,-0.13,-1.13,-1.13,0,*69
1507705538.83,44194,10.81,73764.5,-0.15,-1.13,-1.13,0,*68
1507705540.08,44195,10.81,73764.3,-0.15,-1.05,-1.05,0,*69
1507705541.32,44196,10.81,73766.8,-0.15,-1.13,-1.05,0,*6D
1507705542.57,44197,10.81,73764.8,-0.15,-1.01,-1.05,0,*6F
1507705543.81,44198,10.81,73770.3,-0.15,-1.05,-1.05,0,*64
1507705545.06,44199,10.81,73770.3,-0.15,-1.05,-1.05,0,*65
1507705546.33,44200,10.81,73770.3,-0.13,-1.05,-1.05,0,*60
1507705547.6,44201,10.81,73770.0,-0.13,-1.05,-1.13,0,*66
1507705548.84,44202,10.81,73768.3,-0.15,-1.05,-1.01,0,*60
1507705550.08,44203,10.81,73764.0,-0.15,-1.13,-1.01,0,*66
1507705551.33,44204,10.81,73762.0,-0.15,-1.05,-1.05,0,*62
1507705552.57,44205,10.81,73762.8,-0.15,-1.13,-1.01,0,*60
1507705553.84,44206,10.81,73758.0,-0.17,-1.09,-1.05,0,*6E
1507705555.08,44207,10.75,73762.0,-0.15,-1.05,-1.05,0,*61
1507705556.35,44208,10.81,73782.5,-0.13,-1.13,-1.01,0,*6B
1507705557.59,44209,10.81,73782.5,-0.15,-1.13,-1.13,0,*6F
1507705558.86,44210,10.81,73778.8,-0.17,-1.05,-1.09,0,*69
1507705560.12,44211,10.81,73774.0,-0.17,-1.09,-1.09,0,*64
1507705561.36,44212,10.81,73770.0,-0.15,-1.13,-1.13,0,*65
1507705562.6,44213,10.81,73762.8,-0.15,-1.13,-1.13,0,*64
1507705563.83,44214,10.81,73762.3,-0.15,-1.13,-1.13,0,*63
1507705565.05,44215,10.75,73768.5,-0.15,-1.17,-1.13,0,*66
1507705566.3,44216,10.81,73782.5,-0.17,-1.17,-1.09,0,*6C
1507705567.55,44217,10.81,73774.5,-0.17,-1.05,-1.17,0,*61
1507705568.8,44218,10.81,73774.5,-0.17,-1.17,-1.09,0,*62
1507705570.05,44219,10.81,73768.8,-0.17,-1.17,-1.09,0,*63
1507705571.3,44220,10.81,73768.0,-0.17,-1.17,-1.09,0,*69
1507705572.55,44221,10.81,73770.0,-0.17,-1.17,-1.09,0,*68
1507705573.79,44222,10.75,73760.8,-0.15,-1.05,-1.13,0,*61
1507705575.03,44223,10.75,73754.8,-0.17,-1.09,-1.17,0,*6A
1507705576.25,44224,10.81,73758.8,-0.17,-1.29,-1.29,0,*62
1507705577.44,44225,10.81,73760.5,-0.15,-1.25,-1.29,0,*6D
1507705578.67,44226,10.81,73760.5,-0.17,-1.33,-1.21,0,*63
1507705579.9,44227,10.81,73764.5,-0.17,-1.33,-1.29,0,*6A
1507705581.09,44228,10.81,73762.0,-0.15,-1.25,-1.17,0,*6D
1507705582.28,44229,10.81,73772.5,-0.15,-1.25,-1.17,0,*6C
1507705583.5,44230,10.81,73766.5,-0.17,-1.21,-1.21,0,*67
1507705584.73,44231,10.81,73770.8,-0.17,-1.17,-1.21,0,*63
1507705585.96,44232,10.81,73764.8,-0.17,-1.17,-1.17,0,*65
1507705587.18,44233,10.81,73770.5,-0.17,-1.21,-1.17,0,*61
1507705588.41,44234,10.81,73774.5,-0.17,-1.21,-1.17,0,*66
1507705589.66,44235,10.81,73774.8,-0.17,-1.21,-1.09,0,*68
1507705590.87,44236,10.81,73776.0,-0.21,-1.17,-1.09,0,*6B
1507705592.08,44237,10.81,73772.3,-0.21,-1.09,-1.17,0,*6A
1507705593.29,44238,10.81,73764.3,-0.21,-1.09,-1.17,0,*65
1507705594.55,44239,10.81,73760.5,-0.17,-1.09,-1.09,0,*6E
1507705595.8,44240,10.81,73764.5,-0.17,-1.17,-1.09,0,*6F
1507705597.05,44241,10.81,73762.0,-0.17,-1.17,-1.09,0,*6E
1507705598.28,44242,10.81,73762.0,-0.17,-1.17,-1.17,0,*62
1507705599.53,44243,10.81,73766.0,-0.17,-1.17,-1.09,0,*6C
1507705600.75,44244,10.81,73764.8,-0.17,-1.17,-1.17,0,*64
1507705602.0,44245,10.81,73770.5,-0.17,-1.17,-1.09,0,*6A
1507705603.27,44246,10.81,73764.3,-0.17,-1.09,-1.09,0,*66
1507705604.5,44247,10.81,73768.0,-0.17,-1.17,-1.17,0,*67
1507705605.76,44248,10.81,73764.8,-0.17,-1.09,-1.09,0,*68
1507705607.01,44249,10.81,73766.8,-0.17,-1.09,-1.17,0,*66
1507705608.26,44250,10.81,73770.5,-0.17,-1.17,-1.09,0,*6E
1507705609.52,44251,10.81,73772.8,-0.17,-1.09,-1.09,0,*60
1507705610.77,44252,10.81,73776.5,-0.17,-1.17,-1.09,0,*6C
1507705612.0,44253,10.81,73768.8,-0.17,-1.17,-1.17,0,*62
1507705613.23,44254,10.81,73764.8,-0.17,-1.17,-1.21,0,*60
1507705614.45,44255,10.81,73758.3,-0.17,-1.17,-1.17,0,*64
1507705615.68,44256,10.81,73748.3,-0.17,-1.29,-1.29,0,*67
1507705616.91,44257,10.75,73738.8,-0.17,-1.21,-1.21,0,*66
1507705618.13,44258,10.81,73744.0,-0.17,-1.29,-1.29,0,*69
1507705619.32,44259,10.81,73748.3,-0.21,-1.21,-1.21,0,*6D
1507705620.51,44260,10.81,73746.5,-0.21,-1.29,-1.21,0,*6F
1507705621.74,44261,10.81,73750.8,-0.17,-1.21,-1.29,0,*6B
1507705622.93,44262,10.81,73762.8,-0.21,-1.21,-1.21,0,*65
1507705624.16,44263,10.81,73754.5,-0.17,-1.21,-1.17,0,*64
1507705625.38,44264,10.81,73758.3,-0.17,-1.17,-1.17,0,*66
1507705626.57,44265,10.81,73762.0,-0.21,-1.21,-1.17,0,*67
1507705627.8,44266,10.81,73754.8,-0.17,-1.21,-1.17,0,*61
1507705628.99,44267,10.81,73750.5,-0.21,-1.21,-1.17,0,*65
1507705630.21,44268,10.81,73758.8,-0.17,-1.17,-1.17,0,*6A
1507705631.44,44269,10.81,73752.8,-0.21,-1.09,-1.09,0,*6E
1507705632.69,44270,10.81,73752.3,-0.17,-1.17,-1.09,0,*6C
1507705633.95,44271,10.81,73754.8,-0.17,-1.17,-1.05,0,*61
1507705635.2,44272,10.81,73760.8,-0.17,-1.17,-1.09,0,*6E
1507705636.42,44273,10.81,73762.0,-0.17,-1.17,-1.17,0,*60
1507705637.67,44274,10.81,73766.3,-0.17,-1.17,-1.09,0,*68
1507705638.94,44275,10.81,73766.3,-0.17,-1.09,-1.09,0,*66
1507705640.2,44276,10.81,73766.3,-0.17,-1.09,-1.09,0,*65
1507705641.47,44277,10.81,73770.5,-0.17,-1.09,-1.09,0,*64
1507705642.68,44278,10.81,73768.5,-0.21,-1.17,-1.09,0,*61
1507705643.95,44279,10.81,73764.8,-0.17,-1.09,-1.05,0,*66
1507705645.22,44280,10.81,73770.8,-0.17,-1.09,-1.09,0,*6C
1507705646.49,44281,10.81,73772.0,-0.17,-1.05,-1.09,0,*61
1507705647.72,44282,10.81,73770.5,-0.21,-1.09,-1.09,0,*6B
1507705648.99,44283,10.75,73772.5,-0.17,-1.09,-1.09,0,*6F
1507705650.25,44284,10.81,73780.8,-0.17,-1.09,-1.09,0,*68
1507705651.49,44285,10.81,73770.0,-0.21,-1.09,-1.09,0,*6C
1507705652.72,44286,10.81,73760.8,-0.21,-1.09,-1.09,0,*6F
1507705653.95,44287,10.81,73764.0,-0.21,-1.05,-1.09,0,*62
1507705655.19,44288,10.81,73760.5,-0.21,-1.09,-1.09,0,*61
1507705656.43,44289,10.81,73764.5,-0.17,-1.17,-1.09,0,*6A
1507705657.7,44290,10.81,73772.5,-0.17,-1.09,-1.09,0,*6D
1507705658.97,44291,10.81,73768.3,-0.17,-1.09,-1.09,0,*6C
1507705660.21,44292,10.81,73766.0,-0.17,-1.29,-1.09,0,*6D
1507705661.44,44293,10.81,73764.8,-0.17,-1.17,-1.21,0,*6B
1507705662.67,44294,10.81,73770.0,-0.17,-1.17,-1.17,0,*69
1507705663.88,44295,10.81,73766.8,-0.21,-1.09,-1.17,0,*62
1507705665.13,44296,10.81,73750.8,-0.17,-1.17,-1.09,0,*64
1507705666.32,44297,10.81,73736.8,-0.21,-1.17,-1.17,0,*6F
1507705667.58,44298,10.75,73732.0,-0.17,-1.09,-1.09,0,*65
1507705668.85,44299,10.81,73742.5,-0.17,-1.09,-1.09,0,*64
1507705670.08,44300,10.81,73756.3,-0.21,-1.09,-1.09,0,*60
1507705671.3,44301,10.81,73746.3,-0.21,-1.17,-1.09,0,*6E
1507705672.57,44302,10.81,73750.0,-0.17,-1.09,-1.05,0,*6B
1507705673.79,44303,10.81,73756.5,-0.17,-1.17,-1.17,0,*66
1507705675.06,44304,10.81,73764.3,-0.17,-1.09,-1.09,0,*61
1507705676.31,44305,10.81,73772.0,-0.17,-1.17,-1.09,0,*6F
1507705677.55,44306,10.75,73778.5,-0.17,-1.09,-1.17,0,*6C
1507705678.82,44307,10.81,73782.0,-0.17,-1.09,-1.05,0,*6E
1507705680.09,44308,10.81,73790.5,-0.17,-1.09,-1.05,0,*61
1507705681.36,44309,10.75,73786.0,-0.17,-1.09,-1.05,0,*60
1507705682.6,44310,10.81,73778.0,-0.21,-1.05,-1.09,0,*6D
1507705683.87,44311,10.81,73772.0,-0.17,-1.05,-1.09,0,*69
1507705685.14,44312,10.81,73768.0,-0.17,-1.09,-1.09,0,*66
1507705686.41,44313,10.81,73774.8,-0.17,-1.09,-1.05,0,*6B
1507705687.65,44314,10.75,73772.3,-0.21,-1.05,-1.09,0,*69
1507705688.91,44315,10.81,73776.3,-0.17,-1.09,-1.09,0,*61
1507705690.14,44316,10.75,73774.3,-0.21,-1.09,-1.09,0,*67
1507705691.36,44317,10.81,73780.3,-0.21,-1.17,-1.05,0,*65
1507705692.63,44318,10.81,73780.5,-0.17,-1.09,-1.05,0,*60
1507705693.86,44319,10.75,73772.0,-0.21,-1.09,-1.09,0,*68
1507705695.11,44320,10.75,73778.3,-0.17,-1.17,-1.09,0,*68
1507705696.34,44321,10.75,73782.0,-0.21,-1.09,-1.09,0,*63
1507705697.59,44322,10.81,73782.8,-0.17,-1.17,-1.09,0,*6A
1507705698.86,44323,10.75,73784.0,-0.17,-1.09,-1.09,0,*64
1507705700.1,44324,10.75,73784.8,-0.17,-1.09,-1.17,0,*6C
1507705701.37,44325,10.81,73784.8,-0.17,-1.09,-1.09,0,*62
1507705702.61,44326,10.75,73780.8,-0.17,-1.17,-1.09,0,*6E
1507705703.89,44327,10.81,73780.0,-0.17,-1.05,-1.09,0,*6C
1507705705.15,44328,10.75,73776.5,-0.17,-1.09,-1.09,0,*6F
1507705706.42,44329,10.75,73778.8,-0.17,-1.09,-1.05,0,*62
1507705707.69,44330,10.81,73780.5,-0.17,-1.09,-1.05,0,*6A
1507705708.96,44331,10.75,73780.5,-0.17,-0.97,-1.05,0,*5D
1507705710.23,44332,10.81,73782.0,-0.17,-1.09,-1.09,0,*64
1507705711.49,44333,10.81,73780.0,-0.17,-1.09,-1.09,0,*65
1507705712.76,44334,10.75,73776.3,-0.17,-1.09,-1.05,0,*6E
1507705714.03,44335,10.75,73782.0,-0.17,-1.09,-1.09,0,*63
1507705715.3,44336,10.75,73786.8,-0.17,-1.09,-1.05,0,*6C